Location: Santa Clara
(37.3540°N, 121.9540°W)
Time: 00:00:22
(UTC-07:00)

Hubble Space Telescope - Pass Details

Date: 30 May 2024
Orbit: 511 x 514 km, 28.5° (Epoch: 13 June)

Event Time Altitude Azimuth Distance (km) Brightness Sun altitude
Rises 20:59:46 0° 247° (WSW) 2,611 4.8 -7.2°
Reaches altitude 10° 21:02:20 10° 232° (SW) 1,725 3.6 -7.6°
Maximum altitude 21:05:29 23° 180° (S) 1,131 2.1 -8.1°
Enters shadow 21:08:22 11° 130° (SE) 1,639 2.5 -8.6°
